Regional Weather Roundup
Issued by NWS

Home | Current Version | Previous Version | Graphics & Text | Print | Product List | Glossary On
Versions: 1 2 3 4 5 6 7 8 9 10 11 12 13 14 15 16 17 18 19 20 21 22 23 24 25 26 27 28
000
ASUS45 KTFX 192110
RWRMT
MONTANA REGIONAL WEATHER ROUNDUP
NATIONAL WEATHER SERVICE GREAT FALLS MT
200 PM MST MON FEB 19 2018

NOTE: "FAIR" INDICATES FEW OR NO CLOUDS BELOW 12000 FEET WITH NO
SIGNIFICANT WEATHER AND/OR OBSTRUCTIONS TO VISIBILITY.

MTZ001>007-043-192200-
WEST OF THE DIVIDE

CITY           SKY/WX    TMP DP  RH WIND       PRES   REMARKS
KALISPELL      FAIR      15  -7  37 CALM      29.98F
MISSOULA       CLOUDY    10  -6  48 SE5       29.96S
BUTTE          FAIR       2 -10  57 CALM      29.73S
MULLAN PASS    LGT SNOW   2  -2  83 VRB3      29.67S FOG
ANACONDA         N/A      0 -11  60 N6        29.80S WCI -12
DEER LODGE       N/A      1  -9  60 CALM      29.85F
HAMILTON         N/A     10  -2  56 MISG        N/A
RONAN            N/A      9   0  66 SW5       30.00S
$$

MTZ008-052>055-192200-
SOUTHWEST MONTANA

CITY           SKY/WX    TMP DP  RH WIND       PRES   REMARKS
BOZEMAN        FAIR       1  -9  62 NW6       29.86F WCI -10
DILLON         FAIR      -4  -8  83 E5        29.75F
ENNIS          SUNNY      0 -11  60 NW3       29.79S
W YELLOWSTONE  FAIR       5  -4  66 CALM      29.50F
THREE FORKS      N/A      4 -12  47 W5        29.88S
$$

MTZ009-010-012-014-046-048-049-054-192200-
EAST SLOPES AND CENTRAL MONTANA

CITY           SKY/WX    TMP DP  RH WIND       PRES   REMARKS
CUT BANK       CLOUDY    -2  -7  79 W6        29.95F HAZE    WCI -14
GREAT FALLS    FAIR      -2  -9  72 W5        29.98F
MALMSTROM AFB  FAIR      -3  -7  82 SE3       30.01F
HELENA         FAIR       6 -10  47 W6        29.92F WCI  -4
BOWMANS CRNR   FAIR      -5 -10  76 N3        29.89F
FAIRFIELD      FLURRIES  -3  -9  72 W3        29.95F
POWER          FAIR      -4  -9  79 W3        29.97S
RAYNESFORD     FAIR      -3 -10  72 NW5       29.95F
ULM            PTSUNNY   -3  -8  79 W3        29.99F
WHITE SULPHUR    N/A     -6 -13  71 CALM      29.79F
$$

MTZ011-013-016-021-045-047-050-051-192200-
NORTH CENTRAL MONTANA

CITY           SKY/WX    TMP DP  RH WIND       PRES   REMARKS
HAVRE          LGT SNOW  -1  -6  79 W6        30.10F WCI -13
LEWISTOWN      CLOUDY    -3  -8  79 W8        29.92F WCI -18
N BAR RANCH    CLOUDY    -2 -11  65 E8        29.91R HAZE    WCI -17
CHINOOK          N/A      0  -6  78 NW5       30.12F
GEYSER         FAIR      -3 -10  72 CALM      29.93F
STANFORD       FAIR      -3  -9  77 CALM      29.89F
WINIFRED       PTSUNNY   -2  -6  82 W7        29.96F WCI -15
$$

MTZ017>020-022>027-061-062-192200-
NORTHEAST MONTANA

CITY           SKY/WX    TMP DP  RH WIND       PRES   REMARKS
GLASGOW        LGT SNOW   1  -6  72 NW7       30.11F WCI -12
GLENDIVE       CLOUDY     7  -1  70 CALM      30.10S
JORDAN           N/A      6  -2  69 NE3       30.06F
MALTA          MOSUNNY    0  -6  78 W6        30.12F WCI -12
SIDNEY         FAIR       9  -2  61 CALM      30.15F
WOLF POINT     FAIR       4  -3  73 CALM      30.16F
PLENTYWOOD       N/A      1  -6  71 CALM      30.11F
POPLAR           N/A      3  -6  66 CALM      30.16S
$$

MTZ028>42-056>058-192200-
SOUTHCENTRAL AND SOUTHEAST MONTANA

CITY           SKY/WX    TMP DP  RH WIND       PRES   REMARKS
BAKER          LGT SNOW   2  -3  80 E6        30.03R VSB 1   WCI  -9
BILLINGS       CLOUDY     2  -5  72 NE8       29.96R WCI -12
LIVINGSTON     FAIR       0  -6  76 E9        29.85R WCI -15
MILES CITY     LGT SNOW   4   0  83 NE7       30.06S VSB 1   WCI  -8
BIG TIMBER     SUNNY     -2 -11  65 E3        29.90S
FORSYTH          N/A      3  -2  78 NE3       30.05S
HARLOWTON      FAIR      -2 -10  69 CALM      29.90R
LAUREL           N/A      1  -8  66 N6        29.98F WCI -10
$$

REGIONAL REPORTS...DAKOTAS

CITY           SKY/WX    TMP DP  RH WIND       PRES   REMARKS
WILLISTON      FAIR       4  -4  69 N3        30.15F
MINOT          CLOUDY     8  -2  63 S3        30.16F
DICKINSON      LGT SNOW   4  -5  66 NE8       30.04S WCI  -9
BEACH          FAIR       3  -6  66 CALM      30.09R
CROSBY         FAIR       3  -4  72 CALM      30.15F
TIOGA          FAIR       3  -4  72 CALM      30.12F
BISMARCK       FLURRIES   6  -5  60 NE13      30.15F WCI -10
GRAND FORKS    CLOUDY     5  -4  66 N17       30.23S WCI -14
FARGO          CLOUDY    10   0  63 N24       30.15S WCI -10
BUFFALO SD       N/A      2  -5  72 NE14      29.90F WCI -16
RAPID CITY     LGT SNOW   1  -5  75 N12       29.94R VSB 1   WCI -16
$$

REGIONAL REPORTS...WYOMING/IDAHO/WASHINGTON

CITY           SKY/WX    TMP DP  RH WIND       PRES   REMARKS
GILLETTE       LGT SNOW   2  -4  76 N10       29.79S VSB 3/4 WCI -14
SHERIDAN       LGT SNOW   2  -4  76 N7        29.86F WCI -11
BUFFALO WY     LGT SNOW   1  -6  72 N12       29.74F WCI -16
CODY           LGT SNOW  -3 -10  72 N15       29.77S VSB 1   WCI -23
YELLOWSTONE LA   N/A      7   0  73 VRB6      29.44S WCI  -3
IDAHO FALLS    FAIR      22   2  42 N12G22    29.61S WCI  10
SALMON         PTSUNNY   21   4  47 SW3       29.77F
BOISE          FAIR      32  14  47 NW20G29   29.79S WCI  20
SPOKANE        FAIR      19  -1  41 N10       30.01S WCI   7
$$

REGIONAL REPORTS...ALBERTA

CITY           SKY/WX    TMP DP  RH WIND       PRES   REMARKS
CALGARY        MOSUNNY    9  -9  43 W7        29.92F WCI  -3
CARDSTON         N/A      9  -2  61 SE3         N/A
EDMONTON       PTSUNNY   14  -4  44 W14G21    29.92F WCI  -1
FORT MCMURRAY  LGT SNOW  12   7  79 W9        29.81F WCI   0
HIGH LEVEL     PTSUNNY   16   5  62 NW16G25   29.92R WCI   0
LETHBRIDGE     MOSUNNY    0  -8  71 SW8       30.02F WCI -15
LLOYDMINSTER   MOSUNNY    7  -2  66 SW16      29.91F WCI -11
MEDICINE HAT   PTSUNNY    1  -6  71 SW13      30.08F WCI -16
MILK RIVER       N/A      1  -4  78 W7          N/A  WCI -11
PEACE RIVER    PTSUNNY   16   0  48 W15       29.92F WCI   1
PINCHER CREEK  SUNNY     -4 -13  65 N2        29.92F
WATERTON GATE    N/A      5   0  78 NE3         N/A
$$

REGIONAL REPORTS...SASKATCHEWAN

CITY           SKY/WX    TMP DP  RH WIND       PRES   REMARKS
CORONACH         N/A      3  -6  66 SW3         N/A
CYPRESS HILLS    N/A     -2  -8  78 NW5         N/A
ESTEVAN        PTSUNNY    1  -6  71 W6        30.14F WCI -10
MOOSE JAW        N/A      3  -6  66 W14         N/A  WCI -15
PRINCE ALBERT  MOSUNNY    3  -9  55 S12G20    30.04F WCI -13
REGINA         PTSUNNY    1  -4  78 W6        30.11F WCI -10
ROCKGLEN         N/A      1  -6  71 W7          N/A  WCI -11
SASKATOON      MOSUNNY    3  -6  66 SW12      30.08F WCI -13
SWIFT CURRENT  SUNNY      1  -4  78 SW14      30.03F WCI -17
VAL MARIE        N/A     -2  -8  78 CALM        N/A
$$




USA.gov is the U.S. government's official web portal to all federal, state and local government web resources and services.